Hourly Data Report for November 01, 2019

All times are specified in Local Standard Time (LST). Add 1 hour to adjust for Daylight Saving Time where and when it is observed.

PINAWA
MANITOBA
Current Station Operator: ECCC - MSC

50°10'38.020" N
96°03'53.000" W
268.00 m
503B1ER
71448
WEA

Download Data

Hourly Data (November 2019)
Hourly Data Report for November 1, 2019
TIME Temp Definition
°C
Dew Point Definition
°C
Rel Hum Definition
%
Wind Dir Definition
10's deg

Wind Spd Definition
km/h
Visibility Definition
km
Stn Press Definition
kPa
Hmdx Definition


Wind Chill Definition


Weather Definition


00:00 -0.8 LegendMM LegendMM 31 16   97.74   -6 LegendNANA
01:00 -0.9 LegendMM LegendMM 30 17   97.76   -6 LegendNANA
02:00 -0.8 LegendMM LegendMM 30 15   97.81   -5 LegendNANA
03:00 -0.8 LegendMM LegendMM 30 15   97.86   -5 LegendNANA
04:00 -0.9 LegendMM LegendMM 29 13   97.89   -5 LegendNANA
05:00 -1.0 LegendMM LegendMM 28 10   97.93   -5 LegendNANA
06:00 -1.2 LegendMM LegendMM 28 12   97.96   -5 LegendNANA
07:00 -1.2 LegendMM LegendMM 28 13   97.99   -5 LegendNANA
08:00 -1.3 LegendMM LegendMM 28 9   98.02   -5 LegendNANA
09:00 -0.9 LegendMM LegendMM 27 11   98.03   -5 LegendNANA
10:00 -0.5 LegendMM LegendMM 27 10   98.05   -4 LegendNANA
11:00 -0.4 LegendMM LegendMM 29 16   98.09   -5 LegendNANA
12:00 0.1 LegendMM LegendMM 30 17   98.09     LegendNANA
13:00 0.2 LegendMM LegendMM 31 16   98.09     LegendNANA
14:00 -0.1 LegendMM LegendMM 29 17   98.11   -5 LegendNANA
15:00 -0.6 LegendMM LegendMM 31 20   98.18   -6 LegendNANA
16:00 -1.0 LegendMM LegendMM 30 18   98.22   -6 LegendNANA
17:00 -1.1 LegendMM LegendMM 30 19   98.26   -6 LegendNANA
18:00 -1.2 LegendMM LegendMM 30 17   98.31   -6 LegendNANA
19:00 -1.2 LegendMM LegendMM 30 17   98.33   -6 LegendNANA
20:00 -1.4 LegendMM LegendMM 30 18   98.33   -7 LegendNANA
21:00 -1.6 LegendMM LegendMM 31 17   98.36   -7 LegendNANA
22:00 -1.9 LegendMM LegendMM 32 14   98.38   -7 LegendNANA
23:00 -2.3 LegendMM LegendMM 34 9   98.38   -6 LegendNANA

Notes on Data Quality.

Legend

  • E = Estimated
  • M = Missing
  • NA = Not Available
Date modified: